Weather History for KODX - February, 2012

Change the Weather History Date:

Saturday, February 4, 2012

  Actual Average Record
Temperature  
Mean Temperature 21 °F 26 °F  
Max Temperature 31 °F 38 °F - ()
Min Temperature 11 °F 14 °F - ()
Degree Days  
Heating Degree Days 44 39  
Month to date heating degree days 131 156  
Since 1 July heating degree days 3849 4132  
Cooling Degree Days 0 0  
Month to date cooling degree days 0 0  
Year to date cooling degree days 0 0  
Moisture  
Dew Point 24 °F    
Average Humidity 85    
Maximum Humidity 92    
Minimum Humidity 78    
Precipitation  
Precipitation 0.04 in 0.02 in - ()
Month to date precipitation 0.18 0.07  
Year to date precipitation 0.31 0.44  
Sea Level Pressure  
Sea Level Pressure 30.37 in    
Wind  
Wind Speed 14 mph (North)    
Max Wind Speed 24 mph    
Max Gust Speed 30 mph    
Visibility 4 miles    
Events Snow    
T = Trace of Precipitation, MM = Missing Value Source: NWS Daily Summary

Daily Weather History Graph

Daily Weather History Graph

Search for Another Location

Airport or City:

Trip Planner

Search our weather history database for the weather conditions in past years. The results will help you decide how hot, cold, wet, or windy it might be!

Date:

Astronomy

Feb. 04, 2012 Rise Set
Actual Time 7:45 AM CST 5:54 PM CST
Civil Twilight 7:15 AM CST 6:24 PM CST
Nautical Twilight 6:42 AM CST 6:57 PM CST
Astronomical Twilight 6:10 AM CST 7:29 PM CST
Moon 2:52 PM CST (2/4) 5:13 AM CST (2/4)
Length of Visible Light 11h 08m
Length of Day
10h 09m
Waxing Gibbous, 89% of the Moon is Illuminated
Feb 4
Waxing Gibbous
Feb 7
Full
Feb 14
Last Quarter
Feb 21
New
Feb 29
First Quarter

Hourly Weather History & Observations

Time (CST) Temp. Windchill Dew Point Humidity Pressure Visibility Wind Dir Wind Speed Gust Speed Precip Events Conditions
12:05 AM 30.2 °F 18.5 °F 28.4 °F 93% 30.27 in 0.8 mi North 17.3 mph - 0.01 in Snow Light Snow
12:14 AM 30.2 °F 19.3 °F 28.4 °F 93% 30.27 in 0.8 mi North 15.0 mph - 0.01 in Snow Light Snow
12:20 AM 30.2 °F 20.2 °F 28.4 °F 93% 30.27 in 1.0 mi North 12.7 mph - 0.01 in Snow Light Snow
12:27 AM 30.2 °F 20.2 °F 28.4 °F 93% 30.27 in 1.0 mi North 12.7 mph - 0.02 in Snow Light Snow
12:41 AM 30.2 °F 18.9 °F 28.4 °F 93% 30.27 in 1.2 mi North 16.1 mph 23.0 mph 0.02 in Snow Light Snow
12:48 AM 30.2 °F 19.8 °F 28.4 °F 93% 30.27 in 1.0 mi North 13.8 mph 23.0 mph 0.02 in Snow Light Snow
12:53 AM 30.0 °F 18.7 °F 28.0 °F 92% 30.34 in 1.0 mi North 16.1 mph - 0.03 in Snow Light Snow
12:59 AM 30.2 °F 18.9 °F 28.4 °F 93% 30.27 in 0.8 mi North 16.1 mph - 0.00 in Snow Light Snow
1:14 AM 30.2 °F 18.9 °F 28.4 °F 93% 30.27 in 0.8 mi North 16.1 mph - 0.00 in Snow Light Snow
1:31 AM 28.4 °F 17.0 °F 26.6 °F 93% 30.27 in 0.8 mi North 15.0 mph - 0.00 in Snow Light Snow
1:53 AM 28.9 °F 16.5 °F 27.0 °F 92% 30.34 in 0.8 mi North 18.4 mph - 0.01 in Snow Light Snow
2:00 AM 28.4 °F 14.7 °F 26.6 °F 93% 30.27 in 0.8 mi North 21.9 mph 25.3 mph 0.00 in Snow Light Snow
2:22 AM 28.4 °F 15.8 °F 26.6 °F 93% 30.28 in 1.2 mi North 18.4 mph 27.6 mph 0.00 in Snow Light Snow
2:53 AM 28.0 °F 15.3 °F 26.1 °F 92% 30.35 in 2.0 mi North 18.4 mph 27.6 mph 0.00 in Snow Light Snow
3:17 AM 28.4 °F 17.0 °F 26.6 °F 93% 30.29 in 3.0 mi North 15.0 mph - 0.00 in Snow Light Snow
3:53 AM 28.0 °F 14.9 °F 26.1 °F 92% 30.37 in 2.5 mi North 19.6 mph - 0.00 in Snow Light Snow
4:07 AM 28.4 °F 14.7 °F 26.6 °F 93% 30.30 in 3.0 mi North 21.9 mph - 0.00 in Snow Light Snow
4:21 AM 28.4 °F 14.7 °F 26.6 °F 93% 30.30 in 2.0 mi North 21.9 mph - 0.00 in Snow Light Snow
4:29 AM 28.4 °F 14.7 °F 26.6 °F 93% 30.31 in 1.5 mi North 21.9 mph - 0.00 in Snow Light Snow
4:40 AM 28.4 °F 14.7 °F 26.6 °F 93% 30.31 in 2.5 mi North 21.9 mph - 0.00 in Snow Light Snow
4:53 AM 28.9 °F 16.5 °F 26.1 °F 89% 30.38 in 3.0 mi North 18.4 mph 25.3 mph 0.00 in Snow Light Snow
5:02 AM 28.4 °F 15.1 °F 26.6 °F 93% 30.31 in 2.5 mi North 20.7 mph - 0.00 in Snow Light Snow
5:53 AM 28.0 °F 16.1 °F 26.1 °F 92% 30.40 in 1.8 mi North 16.1 mph - 0.00 in Snow Light Snow
6:31 AM 28.4 °F 15.8 °F 26.6 °F 93% 30.32 in 1.5 mi North 18.4 mph - 0.00 in Snow Light Snow
6:51 AM 28.4 °F 15.1 °F 26.6 °F 93% 30.33 in 2.0 mi North 20.7 mph 28.8 mph 0.00 in Snow Light Snow
6:53 AM 28.0 °F 14.9 °F 26.1 °F 92% 30.40 in 2.0 mi North 19.6 mph 28.8 mph 0.00 in Snow Light Snow
7:03 AM 28.4 °F 14.7 °F 26.6 °F 93% 30.33 in 4.0 mi North 21.9 mph 29.9 mph 0.00 in Snow Light Snow
7:53 AM 28.0 °F 15.3 °F 26.1 °F 92% 30.43 in 5.0 mi North 18.4 mph - 0.00 in   Overcast
8:53 AM 27.0 °F 13.9 °F 25.0 °F 92% 30.44 in 3.0 mi North 18.4 mph - 0.00 in Snow Light Snow
9:53 AM 27.0 °F 15.2 °F 25.0 °F 92% 30.45 in 2.5 mi North 15.0 mph - 0.00 in Snow Light Snow
10:04 AM 26.6 °F 14.3 °F 24.8 °F 93% 30.38 in 3.0 mi North 16.1 mph - 0.00 in   Overcast
10:53 AM 28.0 °F 16.1 °F 25.0 °F 88% 30.46 in 8.0 mi North 16.1 mph - 0.00 in   Overcast
11:53 AM 28.9 °F 16.5 °F 25.0 °F 85% 30.45 in 10.0 mi North 18.4 mph - 0.00 in   Overcast
12:53 PM 28.9 °F 16.9 °F 25.0 °F 85% 30.43 in 10.0 mi North 17.3 mph - N/A   Mostly Cloudy
1:53 PM 28.9 °F 17.7 °F 25.0 °F 85% 30.43 in 10.0 mi North 15.0 mph 24.2 mph N/A   Mostly Cloudy
2:53 PM 30.0 °F 17.9 °F 25.0 °F 82% 30.43 in 10.0 mi North 18.4 mph - N/A   Clear
3:53 PM 30.0 °F 19.5 °F 24.1 °F 79% 30.45 in 10.0 mi North 13.8 mph - N/A   Overcast
4:53 PM 30.0 °F 19.5 °F 24.1 °F 79% 30.46 in 10.0 mi North 13.8 mph - N/A   Scattered Clouds
5:53 PM 28.9 °F 18.6 °F 24.1 °F 82% 30.47 in 8.0 mi NNW 12.7 mph - N/A   Clear
6:53 PM 25.0 °F 17.1 °F 21.9 °F 88% 30.49 in 8.0 mi NNW 6.9 mph - N/A   Clear
7:53 PM 24.1 °F 13.1 °F 21.0 °F 88% 30.50 in 9.0 mi NW 11.5 mph - N/A   Clear
8:53 PM 21.9 °F 11.7 °F 19.9 °F 92% 30.51 in 10.0 mi NW 9.2 mph - N/A   Clear
9:53 PM 19.9 °F 14.9 °F 18.0 °F 92% 30.52 in 7.0 mi WNW 3.5 mph - N/A   Clear
10:47 PM 15.8 °F 8.6 °F 14.0 °F 93% 30.42 in 1.8 mi NNW 4.6 mph - N/A   Clear
10:53 PM 17.1 °F 10.0 °F 15.1 °F 92% 30.52 in 2.0 mi NNW 4.6 mph - N/A   Clear
10:59 PM 15.8 °F 10.2 °F 15.8 °F 100% 30.41 in 1.0 mi NW 3.5 mph - N/A   Clear
11:08 PM 12.2 °F 2.9 °F 10.4 °F 92% 30.41 in 2.0 mi NNW 5.8 mph - N/A   Clear
11:16 PM 10.4 °F 0.8 °F 10.4 °F 100% 30.41 in 4.0 mi NNW 5.8 mph - N/A   Clear
11:53 PM 14.0 °F 8.2 °F 12.9 °F 95% 30.52 in 6.0 mi NW 3.5 mph - N/A   Clear